Showing default

FLOCK 4G 32, 62643

Orbit data source: Space-Track

FLOCK 4G 32, 62643 is a payload satellite owned by Planet (US) in SSO that was launched on Tue, 14 Jan 2025 UTC via an FALCON 9 launch vehicle from the Air Force Western Test Range (AFWTR). Payload-class satellites include a variety of spacecraft equipped with specific instruments for various scientific and technological missions. These include communications satellites like Starlink; space stations such as the ISS; scientific satellites like the Hubble; Earth observation satellites from companies like Planet Labs, Umbra, and HawkEye 360; GPS; miniature CubeSats for education and research; and military/defense satellites.

Loading next visibility...
Identifier
62643, 2025-009AL
Orbit
SSO
Country
Flag of USUS
Related business
Manufacturer
Planet
Mission
Operational Commercial Imaging
Bus & Motor
CUBESAT 3U, Unknown motor
Mass
5.7 kg wet, 5.7 kg dry
Launch date (UTC)
2025-01-14 (11 months ago)
Launch vehicle
FALCON 9
Launch site
Air Force Western Test Range (AFWTR)
Object type
Payload
Rocket body
Debris
Shape & HBR
Box + 2 Pan, 1.0 m
Radar Cross Section
0.072 m², Medium (>0.1 m² and < 1m²)

Expand to show TLE details & history
Last TLE update: 14 hours ago

TLE from 14 hours ago
0 FLOCK 4G 32
1 62643U 25009AL  25353.49229928  .00046979  00000-0  13435-2 0  9993
2 62643  97.4088  72.1005 0001497 249.9034 110.2049 15.35824976 51526
Epoch: 2025-12-19T11:48Z
TLE epoch observation values (Epoch: 2025-12-19T11:48:54.657Z)
Latitude
-0.00001°
Longitude
166.54009°
Altitude
461.937 km
Speed
7.635 km/s
True Right ascension
04h 48m 24s
True Declination
0° 00' 00"
Sunlit
Object was in full shadow at epoch
Visualization orbit readout
Latitude
Unknown
Longitude
Unknown
Altitude
Unknown
Speed
Unknown
Apparent Right ascension
Unknown
Apparent Declination
Unknown
Sunlit
N/A
Visualization observer readout
Local Sidereal Time
00:45:32
Azimuth
Unknown
Elevation
Unknown
Doppler factor
Unknown
Orbital elements
Apogee altitude
456.439 km
Perigee altitude
454.393 km
Semi-major axis
6,833.553 km
Eccentricity
0.00015
Inclination
97.4088°
RAAN
72.1005°
Arg. of periapsis
249.9034°
True anomaly
110.221°
Mean anomaly
110.2049°
Eccentric anomaly
110.21295°
Mean motion
3.84214 °/min
Orbital period
93.7 mins
BSTAR
0.0013435
Loading maneuver chart data...
Computing Atmospheric mass density...
Loading historical data...
Loading historical data...
Loading historical data...
Loading historical data...
Loading historical data...
Loading historical data...
Loading historical data...

Documentation

Showing up to 5 results
|